Elmira, NY

7:02 AM EDT on April 24, 2018 (GMT -0400)
Elmira-Corning Regional

Weather History for KELM - June, 2014

Change the Weather History Date:

Monday, June 9, 2014

  Actual Average Record
Temperature  
Mean Temperature 65 °F -  
Max Temperature 69 °F 77 °F 96 °F (1933)
Min Temperature 62 °F 50 °F 32 °F (1983)
Growing Degree Days 15 (Base 50)    
Moisture  
Dew Point 64 °F    
Average Humidity 95    
Maximum Humidity 100    
Minimum Humidity 87    
Precipitation  
Precipitation 0.37 in - - ()
Sea Level Pressure  
Sea Level Pressure 29.91 in    
Wind  
Wind Speed 4 mph (NNE)    
Max Wind Speed 9 mph    
Max Gust Speed -    
Visibility 5 miles    
Events Rain    
Averages and records for this station are not official NWS values.
T = Trace of Precipitation, MM = Missing Value Source: NWS Daily Summary

Daily Weather History Graph

Daily Weather History Graph

Search for Another Location

Airport or City:

Astronomy

Jun. 09, 2014 Rise Set
Actual Time 5:31 AM EDT 8:42 PM EDT
Civil Twilight 4:57 AM EDT 9:16 PM EDT
Nautical Twilight 4:12 AM EDT 10:01 PM EDT
Astronomical Twilight 3:20 AM EDT 10:54 PM EDT
Moon 4:57 PM EDT (6/9) 3:01 AM EDT (6/9)
Length of Visible Light 16h 19m
Length of Day
15h 11m
Waxing Gibbous, 85% of the Moon is Illuminated
Jun 9
Waxing Gibbous
Jun 13
Full
Jun 19
Last Quarter
Jun 27
New
Jul 5
First Quarter

Hourly Weather History & Observations

Time (EDT) Temp. Dew Point Humidity Pressure Visibility Wind Dir Wind Speed Gust Speed Precip Events Conditions
12:25 AM 64.4 °F 62.6 °F 94% 29.86 in 10.0 mi NE 5.8 mph - 0.00 in   Overcast
12:33 AM 64.4 °F 62.6 °F 94% 29.85 in 10.0 mi East 5.8 mph - 0.00 in   Overcast
12:53 AM 64.0 °F 62.1 °F 93% 29.83 in 4.0 mi ENE 6.9 mph - 0.02 in Rain Rain
1:38 AM 64.4 °F 62.6 °F 94% 29.84 in 8.0 mi East 6.9 mph - 0.05 in Rain Light Rain
1:53 AM 64.0 °F 63.0 °F 96% 29.83 in 4.0 mi NE 3.5 mph - 0.07 in Rain Rain
2:41 AM 64.4 °F 62.6 °F 94% 29.85 in 2.0 mi SE 3.5 mph - 0.09 in Rain Heavy Rain
2:53 AM 64.0 °F 64.0 °F 100% 29.83 in 3.0 mi Calm Calm - 0.12 in Rain Rain
3:05 AM 64.4 °F 62.6 °F 94% 29.85 in 2.0 mi North 3.5 mph - 0.03 in Rain Rain
3:27 AM 62.6 °F 62.6 °F 100% 29.85 in 4.0 mi NNE 3.5 mph - 0.07 in Rain Light Rain
3:38 AM 62.6 °F 62.6 °F 100% 29.85 in 2.0 mi Calm Calm - 0.09 in Rain Light Rain
3:50 AM 62.6 °F 62.6 °F 100% 29.86 in 3.0 mi WNW 3.5 mph - 0.11 in Rain Light Rain
3:53 AM 63.0 °F 63.0 °F 100% 29.84 in 4.0 mi Calm Calm - 0.11 in Rain Light Rain
4:01 AM 62.6 °F 62.6 °F 100% 29.86 in 4.0 mi Calm Calm - 0.00 in Rain Light Rain
4:17 AM 62.6 °F 62.6 °F 100% 29.86 in 9.0 mi Calm Calm - 0.00 in   Overcast
4:53 AM 63.0 °F 62.1 °F 97% 29.86 in 6.0 mi SSW 4.6 mph - 0.00 in Rain Light Rain
5:04 AM 62.6 °F 62.6 °F 100% 29.88 in 8.0 mi WSW 5.8 mph - 0.00 in   Overcast
5:53 AM 63.0 °F 62.1 °F 97% 29.87 in 8.0 mi SW 4.6 mph - 0.00 in   Overcast
6:23 AM 62.6 °F 62.6 °F 100% 29.88 in 9.0 mi Calm Calm - N/A   Overcast
6:53 AM 64.0 °F 62.1 °F 93% 29.88 in 8.0 mi Calm Calm - N/A   Overcast
7:53 AM 64.0 °F 63.0 °F 96% 29.90 in 2.5 mi WSW 3.5 mph - 0.00 in   Overcast
8:03 AM 62.6 °F 62.6 °F 100% 29.91 in 3.0 mi WSW 3.5 mph - N/A   Overcast
8:22 AM 64.4 °F 62.6 °F 94% 29.92 in 1.8 mi SW 4.6 mph - 0.00 in Rain Light Rain
8:33 AM 64.4 °F 62.6 °F 94% 29.92 in 2.5 mi SW 4.6 mph - 0.00 in Rain Light Rain
8:51 AM 64.4 °F 62.6 °F 94% 29.92 in 4.0 mi WSW 3.5 mph - 0.00 in   Overcast
8:53 AM 64.0 °F 63.0 °F 96% 29.91 in 4.0 mi West 3.5 mph - 0.00 in   Overcast
9:31 AM 66.2 °F 64.4 °F 94% 29.91 in 9.0 mi Variable 5.8 mph - N/A   Overcast
9:53 AM 66.9 °F 63.0 °F 87% 29.91 in 5.0 mi NE 9.2 mph - N/A   Overcast
11:53 AM 66.9 °F 64.0 °F 90% 29.93 in 8.0 mi North 4.6 mph - 0.01 in   Overcast
12:53 PM 68.0 °F 64.0 °F 87% 29.93 in 5.0 mi North 3.5 mph - 0.00 in   Overcast
1:21 PM 68.0 °F 64.4 °F 88% 29.94 in 10.0 mi NNE 6.9 mph - N/A   Overcast
1:38 PM 68.0 °F 64.4 °F 88% 29.94 in 10.0 mi NNE 6.9 mph - N/A   Overcast
2:37 PM 68.0 °F 64.4 °F 88% 29.94 in 8.0 mi NNE 6.9 mph - N/A   Overcast
2:53 PM 68.0 °F 64.0 °F 87% 29.94 in 10.0 mi ENE 8.1 mph - N/A   Overcast
3:53 PM 68.0 °F 64.0 °F 87% 29.93 in 10.0 mi ENE 6.9 mph - N/A   Overcast
4:08 PM 68.0 °F 64.4 °F 88% 29.94 in 10.0 mi NE 4.6 mph - N/A   Overcast
4:51 PM 66.2 °F 64.4 °F 94% 29.93 in 2.0 mi NE 5.8 mph - 0.00 in Rain Light Rain
4:53 PM 66.9 °F 64.9 °F 93% 29.93 in 1.8 mi NE 4.6 mph - 0.00 in Rain Light Rain
5:03 PM 66.2 °F 66.2 °F 100% 29.93 in 1.5 mi NE 5.8 mph - 0.00 in Rain Light Rain
5:21 PM 66.2 °F 64.4 °F 94% 29.94 in 2.0 mi NNE 4.6 mph - 0.00 in   Overcast
5:53 PM 66.9 °F 64.9 °F 93% 29.93 in 2.5 mi NE 3.5 mph - 0.01 in Rain Light Rain
6:18 PM 66.2 °F 64.4 °F 94% 29.93 in 4.0 mi NE 5.8 mph - 0.00 in   Overcast
6:50 PM 66.2 °F 64.4 °F 94% 29.94 in 1.5 mi NNE 3.5 mph - 0.00 in Rain Light Rain
6:53 PM 66.0 °F 64.9 °F 96% 29.93 in 1.5 mi North 4.6 mph - 0.00 in Rain Light Rain
7:08 PM 66.2 °F 64.4 °F 94% 29.94 in 2.5 mi NNE 3.5 mph - 0.00 in   Overcast
7:18 PM 66.2 °F 64.4 °F 94% 29.94 in 4.0 mi NE 4.6 mph - 0.00 in   Overcast
7:37 PM 66.2 °F 64.4 °F 94% 29.93 in 7.0 mi NE 5.8 mph - 0.00 in   Overcast
7:53 PM 66.0 °F 64.9 °F 96% 29.93 in 6.0 mi Calm Calm - 0.00 in   Overcast
8:33 PM 66.2 °F 64.4 °F 94% 29.93 in 1.8 mi Calm Calm - N/A   Overcast
8:46 PM 66.2 °F 64.4 °F 94% 29.93 in 3.0 mi Calm Calm - 0.01 in   Overcast
8:53 PM 66.0 °F 64.9 °F 96% 29.93 in 3.0 mi Calm Calm - 0.01 in   Overcast
9:03 PM 66.2 °F 64.4 °F 94% 29.93 in 5.0 mi Calm Calm - N/A   Overcast
9:29 PM 66.2 °F 64.4 °F 94% 29.94 in 5.0 mi Calm Calm - N/A   Overcast
9:53 PM 64.9 °F 64.9 °F 100% 29.95 in 3.0 mi NW 3.5 mph - N/A   Overcast
10:53 PM 66.0 °F 64.9 °F 96% 29.96 in 2.5 mi Calm Calm - 0.00 in Rain Light Rain
11:04 PM 66.2 °F 64.4 °F 94% 29.96 in 1.8 mi Calm Calm - 0.02 in Rain Light Rain
11:12 PM 66.2 °F 64.4 °F 94% 29.96 in 2.5 mi Calm Calm - 0.02 in Rain Light Rain
11:24 PM 66.2 °F 64.4 °F 94% 29.96 in 3.0 mi Calm Calm - 0.02 in   Overcast
11:53 PM 66.0 °F 64.9 °F 96% 29.94 in 4.0 mi Calm Calm - 0.02 in   Overcast